Home   Weather   Sweden   Uppsala   Past weeks
Flag for Sweden

Past Weather in Uppsala, Sweden — Yesterday and Last 2 Weeks

Currently: 36 °F. Drizzle. Partly sunny. (Weather station: Stockholm / Arlanda, Sweden). See more current weather

Past Weather in Uppsala — Graph

°F

Uppsala Temperature Yesterday

Maximum temperature yesterday: 34 °F (at 10:50 am)
Minimum temperature yesterday: 32 °F (at 12:20 am)
Average temperature yesterday: 32 °F

High & Low Weather Summary for the Past Weeks

 TemperatureHumidityPressure
High46 °F (Nov 13, 1:20 pm)100% (Nov 13, 4:50 pm)30.45 "Hg (Nov 13, 4:50 pm)
Low27 °F (Nov 21, 5:50 am)71% (Nov 13, 1:50 pm)29.68 "Hg (Nov 20, 7:20 pm)
Average33 °F93%30.09 "Hg
* Reported Nov 13 12:20 pm — Nov 28 12:50 pm, Uppsala. Weather by CustomWeather, © 2022

Note: Actual official high and low records may vary slightly from our data, if they occured in-between our weather recording intervals... More about our weather records

Uppsala Weather History for the Previous 24 Hours

Scroll right to see more
 ConditionsComfort  
Time TempWeatherWind HumidityBarometerVisibility
12:50 pm
Mon, Nov 28
36 °FDrizzle. Partly sunny.6 mph93%30.33 "HgN/A
12:20 pm36 °FBroken clouds.7 mph93%30.33 "HgN/A
11:50 am36 °FPartly sunny.6 mph93%30.33 "HgN/A
11:20 am36 °FPartly sunny.3 mph93%30.33 "HgN/A
10:50 am37 °FPartly sunny.5 mph87%30.33 "HgN/A
10:20 am36 °FPartly sunny.6 mph93%30.33 "HgN/A
9:20 am36 °FPartly sunny.6 mph93%30.33 "HgN/A
8:20 am36 °FPartly sunny.6 mph93%30.30 "HgN/A
7:50 am36 °FOvercast.6 mph100%30.30 "Hg6 mi
7:20 am36 °FPassing clouds.6 mph100%30.30 "Hg2 mi
6:50 am36 °FLight rain. Passing clouds.5 mph93%30.30 "Hg4 mi
6:20 am34 °FPartly cloudy.5 mph100%30.30 "HgN/A
5:50 am34 °FMostly cloudy.5 mph100%30.30 "Hg4 mi
5:20 am34 °FPassing clouds.3 mph100%30.30 "HgN/A
4:50 am34 °FPassing clouds.3 mph100%30.30 "Hg4 mi
4:20 am36 °FPassing clouds.5 mph93%30.30 "HgN/A
3:50 am34 °FPassing clouds.7 mph100%30.30 "HgN/A
3:20 am36 °FPassing clouds.6 mph93%30.30 "HgN/A
2:50 am36 °FOvercast.6 mph93%30.30 "Hg5 mi
2:20 am36 °FOvercast.6 mph93%30.30 "HgN/A
1:50 am36 °FDrizzle. Overcast.5 mph93%30.30 "Hg6 mi
12:20 am34 °FOvercast.5 mph100%30.30 "Hg5 mi
11:50 pm
Sun, Nov 27
34 °FOvercast.6 mph100%30.30 "Hg5 mi
11:20 pm34 °FOvercast.3 mph100%30.30 "HgN/A
10:50 pm34 °FPassing clouds.5 mph100%30.30 "HgN/A
10:20 pm34 °FPassing clouds.5 mph100%30.30 "Hg6 mi
9:20 pm32 °FIce fog.6 mph100%30.30 "Hg1 mi
8:50 pm32 °FIce fog.2 mph100%30.30 "Hg1 mi
8:20 pm32 °FIce fog.3 mph100%30.30 "Hg1 mi
7:50 pm32 °FMostly cloudy.3 mph100%30.30 "Hg0 mi
7:20 pm32 °FIce fog.3 mph100%30.30 "Hg0 mi
6:50 pm32 °FIce fog.2 mph100%30.30 "Hg0 mi
6:20 pm32 °FIce fog.3 mph100%30.30 "Hg0 mi
5:50 pm32 °FIce fog.No wind100%30.30 "Hg0 mi
5:20 pm32 °FIce fog.2 mph100%30.30 "Hg0 mi
4:50 pm32 °FIce fog.2 mph100%30.30 "Hg0 mi
4:20 pm32 °FIce fog.2 mph100%30.30 "Hg0 mi
3:50 pm32 °FIce fog.2 mph100%30.30 "Hg0 mi
3:20 pm32 °FIce fog.3 mph100%30.30 "Hg0 mi
2:50 pm32 °FFog.5 mph100%30.30 "Hg0 mi
2:20 pm34 °FFog.3 mph93%30.33 "Hg3 mi
Weather by CustomWeather, © 2022

See weather overview